N4AR Weather Reports


time (UTC)temp
C
wind
direction
speed
KPH
gust
KPH
rain 1hr
cm
rain 24hr
cm
rain mn
cm
humidity
%
barometer
mb
20260505100437 15 162 1.6 3.2 0.00 0.00 0.00 72 1015.4
20260505095933 15 75 1.6 1.6 0.00 0.00 0.00 72 1015.2
20260505095430 15 79 0.0 0.0 0.00 0.00 0.00 72 1015.2
20260505094926 15 78 1.6 1.6 0.00 0.00 0.00 72 1015.1
20260505094423 15 149 1.6 3.2 0.00 0.00 0.00 71 1015.3
20260505093919 15 88 3.2 4.8 0.00 0.00 0.00 71 1015.3
20260505093416 15 70 0.0 1.6 0.00 0.00 0.00 71 1015.1
20260505092913 15 81 0.0 1.6 0.00 0.00 0.00 71 1015.1
20260505092411 15 59 1.6 1.6 0.00 0.00 0.00 71 1015.1
20260505091908 15 101 1.6 1.6 0.00 0.00 0.00 71 1014.9
20260505091406 15 77 1.6 1.6 0.00 0.00 0.00 70 1015.0
20260505090904 15 58 1.6 1.6 0.00 0.00 0.00 70 1015.0
20260505090402 15 75 0.0 1.6 0.00 0.00 0.00 70 1014.8
20260505085859 15 119 1.6 1.6 0.00 0.00 0.00 69 1014.9
20260505085357 15 86 1.6 1.6 0.00 0.00 0.00 70 1014.8
20260505084855 15 91 1.6 1.6 0.00 0.00 0.00 69 1015.0
20260505084353 15 75 1.6 3.2 0.00 0.00 0.00 69 1015.0
20260505083850 15 75 0.0 0.0 0.00 0.00 0.00 68 1015.0
20260505083347 15 75 3.2 3.2 0.00 0.00 0.00 68 1014.9
20260505082844 15 80 0.0 0.0 0.00 0.00 0.00 68 1015.0
20260505082339 16 81 1.6 3.2 0.00 0.00 0.00 68 1014.7
20260505081836 16 24 3.2 3.2 0.00 0.00 0.00 68 1014.9
20260505081333 16 59 1.6 1.6 0.00 0.00 0.00 67 1014.8
20260505080830 16 83 1.6 1.6 0.00 0.00 0.00 67 1014.7
20260505080326 16 78 1.6 1.6 0.00 0.00 0.00 66 1014.7
20260505075821 16 75 1.6 1.6 0.00 0.00 0.00 67 1014.5
20260505075319 16 84 3.2 3.2 0.00 0.00 0.00 66 1014.6
20260505074816 16 81 0.0 1.6 0.00 0.00 0.00 65 1014.6
20260505074313 16 34 1.6 3.2 0.00 0.00 0.00 66 1014.7
20260505073810 16 90 1.6 3.2 0.00 0.00 0.00 66 1014.4
20260505073308 16 98 3.2 3.2 0.00 0.00 0.00 65 1014.6
20260505072805 16 56 3.2 4.8 0.00 0.00 0.00 65 1014.7
20260505072301 16 91 1.6 1.6 0.00 0.00 0.00 65 1014.5
20260505071757 16 52 1.6 1.6 0.00 0.00 0.00 65 1014.4
20260505071254 16 92 1.6 3.2 0.00 0.00 0.00 64 1014.5
20260505070751 16 39 1.6 1.6 0.00 0.00 0.00 64 1014.4
20260505070248 16 61 3.2 3.2 0.00 0.00 0.00 64 1014.4
20260505065743 16 62 0.0 1.6 0.00 0.00 0.00 63 1014.4
20260505065240 16 99 1.6 1.6 0.00 0.00 0.00 63 1014.4
20260505064737 16 169 1.6 1.6 0.00 0.00 0.00 63 1014.3
20260505064235 16 80 1.6 1.6 0.00 0.00 0.00 63 1014.4
20260505063732 17 75 1.6 1.6 0.00 0.00 0.00 63 1014.4
20260505063228 17 105 3.2 3.2 0.00 0.00 0.00 63 1014.6
20260505062725 17 63 3.2 4.8 0.00 0.00 0.00 63 1014.4
20260505062223 17 44 3.2 3.2 0.00 0.00 0.00 63 1014.4
20260505061719 17 76 1.6 1.6 0.00 0.00 0.00 62 1014.4
20260505061217 17 117 1.6 3.2 0.00 0.00 0.00 62 1014.5
20260505060714 17 182 1.6 4.8 0.00 0.00 0.00 62 1014.5
20260505060211 17 77 1.6 4.8 0.00 0.00 0.00 62 1014.6
20260505055706 17 107 1.6 3.2 0.00 0.00 0.00 62 1014.6
20260505055203 17 75 3.2 4.8 0.00 0.00 0.00 62 1014.6
20260505054700 17 25 1.6 3.2 0.00 0.00 0.00 62 1014.6
20260505054158 17 92 3.2 3.2 0.00 0.00 0.00 62 1014.6
20260505053656 17 68 1.6 1.6 0.00 0.00 0.00 62 1014.7
20260505053152 17 56 1.6 3.2 0.00 0.00 0.00 62 1014.6
20260505052649 17 1 3.2 4.8 0.00 0.00 0.00 62 1014.4
20260505052146 17 95 1.6 1.6 0.00 0.00 0.00 62 1014.6
20260505051643 17 172 1.6 3.2 0.00 0.00 0.00 62 1014.6
20260505051142 17 94 0.0 1.6 0.00 0.00 0.00 62 1014.5
20260505050639 17 48 1.6 1.6 0.00 0.00 0.00 61 1014.6
20260505050137 17 74 1.6 1.6 0.00 0.00 0.00 62 1014.7
20260505041607 18 76 1.6 1.6 0.00 0.00 0.00 60 1014.6
20260505041104 18 80 3.2 4.8 0.00 0.00 0.00 60 1014.7
20260505040601 18 81 0.0 1.6 0.00 0.00 0.00 60 1014.5
20260505040058 18 59 0.0 1.6 0.00 0.00 0.00 61 1014.6
20260505035555 18 82 3.2 4.8 0.00 0.00 0.00 61 1014.5
20260505035051 18 84 1.6 1.6 0.00 0.00 0.00 61 1014.6
20260505034548 18 131 1.6 3.2 0.00 0.00 0.00 61 1014.6
20260505034044 18 76 1.6 1.6 0.00 0.00 0.00 61 1014.4
20260505033542 18 81 1.6 3.2 0.00 0.00 0.00 61 1014.2
20260505033040 18 85 3.2 3.2 0.00 0.00 0.00 61 1014.4
20260505032537 18 10 3.2 4.8 0.00 0.00 0.00 62 1014.4
20260505032033 18 78 1.6 1.6 0.00 0.00 0.00 61 1014.4
20260505031531 18 125 1.6 1.6 0.00 0.00 0.00 61 1014.3
20260505031027 18 77 1.6 3.2 0.00 0.00 0.00 61 1014.4
20260505030524 18 251 3.2 3.2 0.00 0.00 0.00 61 1014.1
20260505030020 18 79 0.0 0.0 0.00 0.00 0.00 61 1014.3
20260505025516 18 99 3.2 4.8 0.00 0.00 0.00 62 1014.3
20260505025015 18 80 0.0 1.6 0.00 0.00 0.00 62 1014.1
20260505024511 18 65 1.6 3.2 0.00 0.00 0.00 62 1014.2
20260505024009 18 93 1.6 1.6 0.00 0.00 0.00 61 1014.2
20260505023506 18 42 0.0 3.2 0.00 0.00 0.00 61 1014.0
20260505023004 18 87 1.6 1.6 0.00 0.00 0.00 61 1014.2
20260505022501 19 83 1.6 3.2 0.00 0.00 0.00 59 1014.0
20260505021958 19 81 0.0 0.0 0.00 0.00 0.00 59 1014.0
20260505021454 19 47 1.6 3.2 0.00 0.00 0.00 58 1013.8
20260505020950 19 86 1.6 1.6 0.00 0.00 0.00 57 1014.0
20260505020445 19 91 1.6 1.6 0.00 0.00 0.00 57 1013.9
20260505015943 19 96 1.6 3.2 0.00 0.00 0.00 56 1013.7
20260505015440 19 64 1.6 4.8 0.00 0.00 0.00 54 1014.3
20260505014937 19 87 0.0 0.0 0.00 0.00 0.00 52 1013.8
20260505014434 18 77 1.6 1.6 0.00 0.00 0.00 51 1013.7
20260505013931 18 83 0.0 1.6 0.00 0.00 0.00 51 1013.9
20260505013428 17 80 0.0 0.0 0.00 0.00 0.00 51 1013.6
20260505012926 18 84 0.0 0.0 0.00 0.00 0.00 52 1013.7
20260505012423 18 84 0.0 0.0 0.00 0.00 0.00 50 1013.7
20260505011919 18 84 0.0 0.0 0.00 0.00 0.00 49 1013.7
20260505011416 18 84 0.0 0.0 0.00 0.00 0.00 48 1013.7
20260505010913 18 84 0.0 0.0 0.00 0.00 0.00 47 1013.5
20260505010408 18 83 0.0 0.0 0.00 0.00 0.00 47 1013.6
20260505005904 19 83 0.0 0.0 0.00 0.00 0.00 46 1013.5
20260505005401 19 83 0.0 0.0 0.00 0.00 0.00 45 1013.5
20260505004859 20 83 0.0 1.6 0.00 0.00 0.00 46 1013.4
20260505004355 20 83 0.0 0.0 0.00 0.00 0.00 43 1013.4
20260505003853 20 83 0.0 0.0 0.00 0.00 0.00 43 1013.3
20260505003350 20 83 0.0 0.0 0.00 0.00 0.00 41 1013.0
20260505002845 21 83 0.0 0.0 0.00 0.00 0.00 41 1013.0
20260505002342 21 84 0.0 0.0 0.00 0.00 0.00 41 1013.0
20260505001841 21 80 0.0 0.0 0.00 0.00 0.00 40 1013.2
20260505001337 21 84 0.0 0.0 0.00 0.00 0.00 40 1012.9
20260505000835 21 84 0.0 0.0 0.00 0.00 0.00 39 1012.8
20260505000333 22 85 0.0 0.0 0.00 0.00 0.00 39 1012.8
20260504235829 22 80 0.0 0.0 0.00 0.00 0.00 37 1013.1
20260504235326 22 89 0.0 1.6 0.00 0.00 0.00 36 1012.9
20260504234823 22 78 0.0 0.0 0.00 0.00 0.00 36 1012.8
20260504234320 22 82 0.0 0.0 0.00 0.00 0.00 36 1012.8
20260504233816 23 80 0.0 0.0 0.00 0.00 0.00 35 1012.8
20260504233313 23 84 0.0 0.0 0.00 0.00 0.00 35 1012.6
20260504232809 23 89 0.0 1.6 0.00 0.00 0.00 35 1012.5
20260504232307 23 81 0.0 0.0 0.00 0.00 0.00 35 1012.5
20260504231803 23 75 0.0 1.6 0.00 0.00 0.00 34 1012.7
20260504231300 23 78 1.6 1.6 0.00 0.00 0.00 34 1012.6
20260504230756 23 80 0.0 1.6 0.00 0.00 0.00 34 1012.5
20260504230254 24 89 1.6 1.6 0.00 0.00 0.00 33 1012.5
20260504225753 25 76 0.0 0.0 0.00 0.00 0.00 32 1012.6
20260504225248 25 69 0.0 1.6 0.00 0.00 0.00 32 1012.5
20260504224746 25 97 1.6 1.6 0.00 0.00 0.00 31 1012.6
20260504224243 26 84 3.2 3.2 0.00 0.00 0.00 30 1012.6
20260504223739 26 114 4.8 4.8 0.00 0.00 0.00 30 1012.4
20260504223235 26 112 1.6 1.6 0.00 0.00 0.00 30 1012.5
20260504222732 26 98 1.6 3.2 0.00 0.00 0.00 30 1012.4
20260504222229 26 83 1.6 1.6 0.00 0.00 0.00 30 1012.4
20260504221726 26 93 1.6 3.2 0.00 0.00 0.00 30 1012.4
20260504221223 25 74 0.0 1.6 0.00 0.00 0.00 30 1012.5
20260504220720 25 81 0.0 0.0 0.00 0.00 0.00 31 1012.5
20260504220218 25 60 3.2 3.2 0.00 0.00 0.00 32 1012.5
20260504215714 26 104 1.6 1.6 0.00 0.00 0.00 30 1012.5
20260504215211 26 80 0.0 0.0 0.00 0.00 0.00 28 1012.6
20260504214707 26 69 1.6 1.6 0.00 0.00 0.00 28 1012.6
20260504214203 26 74 0.0 1.6 0.00 0.00 0.00 28 1012.5
20260504213700 26 86 1.6 1.6 0.00 0.00 0.00 28 1012.8
20260504213157 26 39 3.2 4.8 0.00 0.00 0.00 27 1012.5
20260504212654 27 72 3.2 4.8 0.00 0.00 0.00 27 1012.5
20260504212150 27 38 1.6 3.2 0.00 0.00 0.00 27 1012.6
20260504211648 27 0 3.2 4.8 0.00 0.00 0.00 27 1012.4
20260504211144 27 75 1.6 1.6 0.00 0.00 0.00 28 1012.6
20260504210642 27 38 1.6 3.2 0.00 0.00 0.00 26 1012.6
20260504210138 27 82 0.0 1.6 0.00 0.00 0.00 27 1012.4
20260504205636 27 65 1.6 1.6 0.00 0.00 0.00 27 1012.5
20260504205133 28 87 1.6 3.2 0.00 0.00 0.00 26 1012.6
20260504204631 27 104 3.2 3.2 0.00 0.00 0.00 27 1012.4
20260504204130 27 71 3.2 3.2 0.00 0.00 0.00 27 1012.5
20260504203628 27 36 6.4 6.4 0.00 0.00 0.00 28 1012.4
20260504203125 28 82 3.2 3.2 0.00 0.00 0.00 27 1012.3
20260504202620 28 28 1.6 1.6 0.00 0.00 0.00 26 1012.5
20260504202117 28 90 3.2 4.8 0.00 0.00 0.00 27 1012.6
20260504201614 27 67 1.6 1.6 0.00 0.00 0.00 27 1012.6
20260504201112 27 136 6.4 9.7 0.00 0.00 0.00 27 1012.7
20260504200608 28 82 3.2 4.8 0.00 0.00 0.00 26 1012.7
20260504200105 28 87 1.6 4.8 0.00 0.00 0.00 28 1012.8
20260504195601 28 54 1.6 1.6 0.00 0.00 0.00 26 1012.7
20260504195057 28 65 0.0 1.6 0.00 0.00 0.00 27 1013.0
20260504194554 28 27 3.2 3.2 0.00 0.00 0.00 28 1013.1
20260504194049 28 80 4.8 4.8 0.00 0.00 0.00 27 1013.2
20260504193546 28 72 1.6 1.6 0.00 0.00 0.00 28 1013.1
20260504193045 27 1 1.6 1.6 0.00 0.00 0.00 28 1013.3
20260504192543 27 92 3.2 3.2 0.00 0.00 0.00 28 1013.2
20260504192040 27 178 1.6 3.2 0.00 0.00 0.00 29 1013.2
20260504191538 27 82 1.6 1.6 0.00 0.00 0.00 28 1013.4
20260504191034 27 235 3.2 4.8 0.00 0.00 0.00 30 1013.2
20260504190531 27 24 1.6 1.6 0.00 0.00 0.00 31 1013.4
20260504190026 27 77 3.2 4.8 0.00 0.00 0.00 30 1013.5
20260504185525 26 185 3.2 4.8 0.00 0.00 0.00 30 1013.7
20260504185020 25 301 4.8 4.8 0.00 0.00 0.00 33 1013.8
20260504184515 26 62 3.2 3.2 0.00 0.00 0.00 30 1013.9
20260504184011 26 118 1.6 3.2 0.00 0.00 0.00 30 1013.9
20260504183509 26 81 1.6 1.6 0.00 0.00 0.00 31 1014.0
20260504183007 25 44 3.2 4.8 0.00 0.00 0.00 33 1014.2
20260504182503 25 67 1.6 1.6 0.00 0.00 0.00 34 1014.3
20260504182000 25 329 3.2 4.8 0.00 0.00 0.00 32 1014.3
20260504181457 26 37 3.2 3.2 0.00 0.00 0.00 33 1014.3
20260504180956 26 88 1.6 1.6 0.00 0.00 0.00 30 1014.2
20260504180455 26 107 3.2 4.8 0.00 0.00 0.00 31 1014.7
20260504175953 26 69 3.2 3.2 0.00 0.00 0.00 31 1014.4
20260504175449 25 93 1.6 3.2 0.00 0.00 0.00 33 1014.6
20260504174947 25 182 6.4 6.4 0.00 0.00 0.00 31 1014.5
20260504174444 26 283 4.8 9.7 0.00 0.00 0.00 31 1014.5
20260504173942 26 171 3.2 3.2 0.00 0.00 0.00 33 1014.5
20260504173437 27 48 1.6 3.2 0.00 0.00 0.00 31 1014.5
20260504172936 26 127 1.6 1.6 0.00 0.00 0.00 34 1014.5
20260504172431 25 75 1.6 3.2 0.00 0.00 0.00 33 1014.4
20260504171928 26 65 3.2 3.2 0.00 0.00 0.00 33 1014.8
20260504171425 26 107 3.2 4.8 0.00 0.00 0.00 30 1014.7
20260504170922 26 85 1.6 3.2 0.00 0.00 0.00 32 1014.7
20260504170418 25 170 3.2 4.8 0.00 0.00 0.00 31 1014.8
20260504160337 25 27 1.6 3.2 0.00 0.00 0.00 35 1015.5
20260504150802 22 77 1.6 1.6 0.00 0.00 0.00 41 1016.2
20260504150258 21 88 1.6 1.6 0.00 0.00 0.00 41 1016.1
20260504141229 21 84 0.0 1.6 0.00 0.00 0.00 43 1016.3
20260504140725 20 7 1.6 1.6 0.00 0.00 0.00 44 1016.4
20260504140220 20 80 1.6 1.6 0.00 0.00 0.00 45 1016.3
20260504130649 16 93 1.6 1.6 0.00 0.00 0.00 58 1016.8
20260504130145 16 211 3.2 3.2 0.00 0.00 0.00 58 1016.7
20260504120110 12 45 3.2 3.2 0.00 0.00 0.00 68 1017.0
20260504110537 10 87 0.0 0.0 0.00 0.00 0.00 74 1017.1